FW7617 Weather Reports


time (UTC)temp
F
wind
direction
speed
knots
gust
knots
rain 1hr
in
rain 24hr
in
rain mn
in
humidity
%
barometer
mb
20260503225516 60 256 1.7 5.2 0.00 0.01 0.01 29 1010.6
20260503224516 60 264 1.7 4.3 0.00 0.01 0.01 31 1010.7
20260503223536 60 258 1.7 5.2 0.00 0.01 0.01 29 1010.7
20260503222517 61 256 2.6 6.1 0.00 0.01 0.01 29 1010.6
20260503221516 61 253 2.6 4.3 0.00 0.01 0.01 29 1010.6
20260503220537 61 264 2.6 4.3 0.00 0.01 0.01 30 1010.6
20260503215517 61 249 3.5 7.8 0.00 0.01 0.01 28 1010.6
20260503214517 62 247 3.5 7.8 0.00 0.01 0.01 29 1010.6
20260503213517 62 273 1.7 4.3 0.00 0.01 0.01 30 1010.6
20260503212535 62 306 1.7 3.5 0.00 0.01 0.01 36 1010.6
20260503211516 62 269 2.6 6.1 0.00 0.01 0.01 33 1010.6
20260503210516 62 266 3.5 11.3 0.00 0.01 0.01 32 1010.6
20260503205516 61 269 3.5 7.0 0.00 0.01 0.01 35 1010.6
20260503204515 59 284 1.7 7.0 0.00 0.01 0.01 33 1010.7
20260503203515 60 255 3.5 9.6 0.00 0.01 0.01 34 1010.7
20260503202515 62 278 2.6 6.1 0.00 0.01 0.01 33 1010.7
20260503201516 62 251 2.6 7.0 0.00 0.01 0.01 31 1010.7
20260503200516 61 259 2.6 7.0 0.00 0.01 0.01 33 1010.9
20260503195516 62 257 2.6 6.1 0.00 0.01 0.01 34 1010.9
20260503194536 61 247 4.3 7.8 0.00 0.01 0.01 30 1010.9
20260503193536 60 286 1.7 7.8 0.00 0.01 0.01 35 1011.1
20260503192517 61 266 3.5 6.1 0.00 0.01 0.01 34 1011.1
20260503191517 60 284 3.5 8.7 0.00 0.01 0.01 35 1011.1
20260503190517 59 323 2.6 7.0 0.00 0.01 0.01 36 1011.2
20260503185517 60 304 3.5 7.8 0.00 0.01 0.01 38 1011.3
20260503184517 60 284 3.5 9.6 0.00 0.01 0.01 34 1011.4
20260503183537 60 270 3.5 8.7 0.00 0.01 0.01 37 1011.6
20260503182517 60 304 3.5 11.3 0.00 0.01 0.01 37 1011.5
20260503181518 59 251 4.3 8.7 0.00 0.01 0.01 34 1011.5
20260503180538 59 250 4.3 8.7 0.00 0.01 0.01 34 1011.6
20260503175518 58 253 4.3 10.4 0.00 0.01 0.01 34 1011.5
20260503174515 58 244 4.3 13.0 0.00 0.01 0.01 37 1011.7
20260503173535 58 292 3.5 8.7 0.00 0.01 0.01 42 1011.8
20260503172536 58 319 2.6 5.2 0.00 0.01 0.01 43 1012.0
20260503171515 57 245 3.5 9.6 0.00 0.01 0.01 38 1012.0
20260503170516 56 325 2.6 7.8 0.00 0.01 0.01 42 1012.1
20260503150518 53 318 3.5 10.4 0.00 0.01 0.01 49 1012.9
20260503130517 50 349 2.6 6.1 0.00 0.01 0.01 55 1012.6
20260503110516 45 344 1.7 5.2 0.00 0.01 0.01 61 1012.1
20260503081536 46 313 1.7 6.1 0.00 0.00 0.00 52 1010.6
20260503080516 46 348 1.7 6.1 0.00 0.00 0.00 52 1010.6
20260503072516 47 280 0.9 3.5 0.00 0.00 0.00 51 1010.5
20260503071516 48 8 0.9 1.7 0.00 0.00 0.00 51 1010.5
20260503070517 48 335 1.7 3.5 0.00 0.00 0.00 50 1010.5
20260503054515 49 15 0.9 3.5 0.00 0.02 0.00 47 1010.8
20260503053516 49 329 1.7 3.5 0.00 0.02 0.00 48 1010.8
20260503052516 49 342 1.7 5.2 0.00 0.02 0.00 47 1010.8
20260503051516 49 40 0.9 2.6 0.00 0.02 0.00 46 1010.9
20260503050556 49 357 0.9 4.3 0.00 0.02 0.00 47 1010.9
20260503045517 50 270 0.9 3.5 0.00 0.02 0.00 45 1011.0
20260503044537 49 7 1.7 6.1 0.00 0.02 0.00 47 1011.0
20260503043517 49 18 1.7 6.1 0.00 0.02 0.00 49 1010.9
20260503042517 48 277 0.9 3.5 0.00 0.02 0.00 52 1011.0
20260503041517 47 261 0.9 2.6 0.00 0.02 0.00 55 1011.0
20260503040517 47 272 0.9 1.7 0.00 0.02 0.00 55 1011.1
20260503035518 47 265 0.0 0.9 0.00 0.02 0.02 55 1011.1
20260503034517 47 261 0.9 2.6 0.00 0.02 0.02 56 1011.1
20260503033518 47 263 0.9 1.7 0.00 0.02 0.02 52 1011.1
20260503032518 47 292 0.9 1.7 0.00 0.02 0.02 52 1011.1
20260503031518 47 282 0.9 1.7 0.00 0.02 0.02 51 1011.2
20260503030518 48 329 0.9 1.7 0.00 0.02 0.02 51 1011.2
20260503025515 49 350 0.9 1.7 0.00 0.02 0.02 50 1011.3
20260503024516 50 329 0.9 1.7 0.00 0.02 0.02 46 1011.3
20260503023515 51 359 0.9 1.7 0.00 0.02 0.02 44 1011.3
20260503022536 52 326 0.9 2.6 0.00 0.02 0.02 42 1011.2
20260503021536 52 360 0.9 2.6 0.00 0.02 0.02 42 1011.2
20260503020516 52 8 0.9 3.5 0.00 0.02 0.02 42 1011.2
20260503015517 52 345 1.7 4.3 0.00 0.02 0.02 43 1011.2
20260503014516 52 1 0.9 2.6 0.00 0.02 0.02 43 1011.1
20260503013517 52 323 0.9 1.7 0.00 0.02 0.02 43 1011.3
20260503012517 52 352 0.9 2.6 0.00 0.02 0.02 45 1011.3
20260503011517 52 300 0.9 2.6 0.00 0.02 0.02 46 1011.2
20260503010517 52 6 0.9 2.6 0.00 0.02 0.02 47 1011.1
20260503005517 53 355 0.0 1.7 0.00 0.02 0.02 47 1011.0
20260503004517 53 5 0.9 0.9 0.00 0.02 0.02 41 1010.7
20260503003517 54 346 0.9 1.7 0.00 0.02 0.02 40 1010.7
20260503002518 54 344 0.9 2.6 0.00 0.02 0.02 42 1010.6
20260503001515 54 28 0.9 2.6 0.00 0.02 0.02 44 1010.6
20260503000518 54 326 0.9 2.6 0.00 0.02 0.02 44 1010.5
20260502235516 55 336 0.9 1.7 0.00 0.02 0.02 45 1010.4
20260502234515 55 327 0.0 0.9 0.00 0.02 0.02 43 1010.4
20260502233516 56 359 0.9 1.7 0.00 0.02 0.02 40 1010.5
20260502232516 56 343 0.9 1.7 0.00 0.02 0.02 41 1010.4
20260502231516 57 348 0.9 4.3 0.00 0.02 0.02 40 1010.4
20260502230516 58 351 0.9 3.5 0.00 0.02 0.02 40 1010.4